Weather in Dobroslav

Ukraine / Odesa District     46°49′12″N   30°56′41″E
temp.,
°C
wind,
m/s
gust,
m/s
humid.,
%
clouds,
%
prec.,
mm/h
press.,
hPa
HPBL,
m
20 april, tue
tue2000:00+10nw226993 0.0 101115
03:00+10nne4676100 0.0 1009147
06:00+9nne4875100 0.0 1008282
09:00+8n5881100 0.3 1008337
12:00+11n5759100 0.0 1008853
15:00+14nw5646100 0.1 10081608
18:00+13nw574937 0.0 10081442
21:00+9wnw466677 0.0 101095
21 april, wed
wed2100:00+9w4766100 0.0 1011125
03:00+8w467161 0.0 1012102
06:00+7w358199 0.0 101392
09:00+11w35715 0.1 1014574
12:00+15wsw454815 0.4 10141753
15:00+14s775995 0.8 1015531
18:00+14s556058 0.3 1015458
21:00+10ssw48815 0.4 1017161
22 april, thu
thu2200:00+9ssw33855 0.0 101746
03:00+9ssw23795 0.0 101720
06:00+8ssw228219 0.0 101814
09:00+14s466712 0.0 1019307
12:00+16ssw67525 0.0 10191027
15:00+16s785388 0.0 1019597
18:00+13s696526 0.6 1019344
21:00+10s5128727 1.1 1020262
23 april, fri
fri2300:00+10s5128213 0.0 1019278
03:00+10ssw6138290 0.0 1019338
06:00+9s513895 0.0 1019293
09:00+13ssw8127014 0.0 1019510
12:00+14s8126380 0.0 1019617
15:00+15s9135725 0.0 1018776
18:00+12s9156973 0.0 1016558
21:00+8nnw91285100 0.0 1019643
24 april, sat
sat2400:00+7nnw61086100 2.0 1020634
03:00+6nnw48855 2.6 1020425
06:00+4wnw37920 0.0 1021202
09:00+9nw79602 0.0 1022894
12:00+11nw89405 0.0 10231806
15:00+12nw78312 0.0 10221901
18:00+12nnw56355 0.0 10231857
21:00+8nne22490 0.0 102316